AAL2472 KMIA-TTPP

Flight info

Callsign AAL2472
Flight time 3h 8m
Altitude 35000
Route KLADA2 BITAC Y290 HAGIT Y421 HARBG L452 ANADA UG449 POS
Aircraft B738/M-SDE2E3FGHIRWXY/LB1

Departure

Time 2026-05-04 17:08
Airport Miami International Airport (KMIA)

Arrival

Time 2026-05-04 20:17
Airport Piarco International Airport (TTPP)
Time Latitude Longitude Altitude Speed Heading
2026-05-04 16:43 25.79638 -80.28061 13 ft 0 kts 52°
2026-05-04 16:54 25.79637 -80.28062 13 ft 1 kts 52°
2026-05-04 16:55 25.79592 -80.28062 13 ft 0 kts 300°
2026-05-04 16:55 25.79588 -80.28054 13 ft 0 kts 295°
2026-05-04 16:59 25.79604 -80.28091 13 ft 6 kts 295°
2026-05-04 17:00 25.79669 -80.28435 13 ft 13 kts 267°
2026-05-04 17:00 25.79644 -80.28699 13 ft 5 kts 265°
2026-05-04 17:01 25.79644 -80.28708 13 ft 0 kts 266°
2026-05-04 17:01 25.79644 -80.28709 13 ft 0 kts 266°
2026-05-04 17:02 25.79647 -80.28766 13 ft 8 kts 289°
2026-05-04 17:02 25.79831 -80.28816 13 ft 19 kts 358°
2026-05-04 17:03 25.79965 -80.28824 13 ft 18 kts 349°
2026-05-04 17:03 25.80010 -80.28938 13 ft 18 kts 267°
2026-05-04 17:03 25.79997 -80.29260 13 ft 23 kts 268°
2026-05-04 17:04 25.79981 -80.29639 13 ft 24 kts 268°
2026-05-04 17:04 25.79974 -80.29948 13 ft 7 kts 284°
2026-05-04 17:05 25.79978 -80.29961 13 ft 0 kts 285°
2026-05-04 17:06 25.79979 -80.29968 13 ft 4 kts 285°
2026-05-04 17:07 25.80047 -80.30117 13 ft 12 kts 359°
2026-05-04 17:07 25.80076 -80.30084 13 ft 7 kts 85°
2026-05-04 17:07 25.80076 -80.30062 13 ft 0 kts 88°
2026-05-04 17:07 25.80080 -80.29960 13 ft 40 kts 87°
2026-05-04 17:08 25.80102 -80.29402 13 ft 102 kts 87°
2026-05-04 17:08 25.80191 -80.27128 307 ft 168 kts 83°
2026-05-04 17:08 25.80292 -80.25845 824 ft 171 kts 87°
2026-05-04 17:09 25.79976 -80.24548 1315 ft 183 kts 117°
2026-05-04 17:09 25.79278 -80.23327 1740 ft 194 kts 117°
2026-05-04 17:09 25.78605 -80.21974 2107 ft 205 kts 114°
2026-05-04 17:10 25.77247 -80.18930 2758 ft 238 kts 114°
2026-05-04 17:10 25.74726 -80.13759 4189 ft 273 kts 118°
2026-05-04 17:11 25.73792 -80.11890 4770 ft 280 kts 117°
2026-05-04 17:11 25.72970 -80.09922 5409 ft 283 kts 111°
2026-05-04 17:11 25.71606 -80.05793 6647 ft 292 kts 110°
2026-05-04 17:12 25.70928 -80.03675 7246 ft 296 kts 110°
2026-05-04 17:12 25.69507 -79.99340 8500 ft 303 kts 111°
2026-05-04 17:13 25.67269 -79.92656 10188 ft 318 kts 112°
2026-05-04 17:14 25.64794 -79.85257 11026 ft 363 kts 112°
2026-05-04 17:14 25.63899 -79.82576 11174 ft 381 kts 112°
2026-05-04 17:14 25.61997 -79.76874 11689 ft 408 kts 112°
2026-05-04 17:15 25.61012 -79.73917 12186 ft 413 kts 111°
2026-05-04 17:15 25.58983 -79.67883 13239 ft 423 kts 112°
2026-05-04 17:16 25.56775 -79.61771 14394 ft 429 kts 114°
2026-05-04 17:16 25.53337 -79.52515 16112 ft 438 kts 114°
2026-05-04 17:17 25.52183 -79.49392 16593 ft 443 kts 114°
2026-05-04 17:17 25.48667 -79.39834 18154 ft 452 kts 114°
2026-05-04 17:18 25.47480 -79.36608 18614 ft 456 kts 114°
2026-05-04 17:18 25.45068 -79.30055 19557 ft 463 kts 114°
2026-05-04 17:19 25.42633 -79.23453 20438 ft 470 kts 114°
2026-05-04 17:19 25.40156 -79.16740 21380 ft 474 kts 114°
2026-05-04 17:20 25.37645 -79.09949 22181 ft 481 kts 114°
2026-05-04 17:20 25.35099 -79.03073 22960 ft 488 kts 114°
2026-05-04 17:20 25.33817 -78.99613 23359 ft 491 kts 114°
2026-05-04 17:21 25.31221 -78.92614 24162 ft 497 kts 114°
2026-05-04 17:21 25.28571 -78.85487 24903 ft 504 kts 114°
2026-05-04 17:22 25.27249 -78.81934 25298 ft 506 kts 114°
2026-05-04 17:22 25.25898 -78.78305 25645 ft 510 kts 114°
2026-05-04 17:23 25.21814 -78.67366 26672 ft 520 kts 114°
2026-05-04 17:23 25.20443 -78.63698 27047 ft 522 kts 113°
2026-05-04 17:23 25.17659 -78.56274 27903 ft 523 kts 114°
2026-05-04 17:24 25.16225 -78.52587 28355 ft 523 kts 115°
2026-05-04 17:24 25.11732 -78.41669 29729 ft 521 kts 116°
2026-05-04 17:25 25.10225 -78.38063 30216 ft 518 kts 116°
2026-05-04 17:25 25.07229 -78.30866 31245 ft 511 kts 117°
2026-05-04 17:26 25.04275 -78.23734 32013 ft 509 kts 118°
2026-05-04 17:26 24.99832 -78.12998 32817 ft 512 kts 118°
2026-05-04 17:27 24.96879 -78.05859 33167 ft 517 kts 118°
2026-05-04 17:27 24.93905 -77.98666 33881 ft 514 kts 119°
2026-05-04 17:28 24.90929 -77.91484 34426 ft 514 kts 119°
2026-05-04 17:29 24.86487 -77.80793 34992 ft 512 kts 119°
2026-05-04 17:29 24.82071 -77.70197 35006 ft 509 kts 119°
2026-05-04 17:31 24.74693 -77.52573 35006 ft 509 kts 120°
2026-05-04 17:32 24.66817 -77.35246 35008 ft 507 kts 122°
2026-05-04 17:33 24.60444 -77.21478 35004 ft 508 kts 122°
2026-05-04 17:34 24.54066 -77.07619 35005 ft 507 kts 122°
2026-05-04 17:35 24.46102 -76.90346 35007 ft 509 kts 122°
2026-05-04 17:36 24.42927 -76.83466 35007 ft 505 kts 122°
2026-05-04 17:36 24.39746 -76.76594 35010 ft 506 kts 122°
2026-05-04 17:37 24.36544 -76.69696 35008 ft 506 kts 122°
2026-05-04 17:37 24.33356 -76.62838 35002 ft 507 kts 122°
2026-05-04 17:38 24.30143 -76.55932 35002 ft 509 kts 122°
2026-05-04 17:38 24.26919 -76.49010 35000 ft 509 kts 122°
2026-05-04 17:39 24.22133 -76.38740 34999 ft 505 kts 122°
2026-05-04 17:39 24.18939 -76.31904 34999 ft 505 kts 122°
2026-05-04 17:40 24.15716 -76.25020 35001 ft 506 kts 123°
2026-05-04 17:40 24.12515 -76.18193 35005 ft 506 kts 123°
2026-05-04 17:41 24.09307 -76.11368 35008 ft 505 kts 123°
2026-05-04 17:41 24.06084 -76.04514 35006 ft 505 kts 123°
2026-05-04 17:42 24.02867 -75.97675 35007 ft 506 kts 122°
2026-05-04 17:42 23.99650 -75.90846 35008 ft 505 kts 122°
2026-05-04 17:43 23.96425 -75.84020 35003 ft 508 kts 123°
2026-05-04 17:43 23.93193 -75.77186 34990 ft 504 kts 123°
2026-05-04 17:44 23.89963 -75.70369 34993 ft 507 kts 122°
2026-05-04 17:44 23.86714 -75.63515 34993 ft 505 kts 122°
2026-05-04 17:45 23.83492 -75.56729 34995 ft 504 kts 123°
2026-05-04 17:45 23.80264 -75.49944 34998 ft 506 kts 122°
2026-05-04 17:46 23.77035 -75.43161 34994 ft 505 kts 123°
2026-05-04 17:46 23.73776 -75.36322 34999 ft 506 kts 123°
2026-05-04 17:47 23.70551 -75.29563 35000 ft 502 kts 123°
2026-05-04 17:47 23.67321 -75.22813 35005 ft 504 kts 123°
2026-05-04 17:48 23.64075 -75.16038 35004 ft 505 kts 123°
2026-05-04 17:48 23.60834 -75.09281 35007 ft 503 kts 123°
2026-05-04 17:49 23.57574 -75.02500 35006 ft 505 kts 123°
2026-05-04 17:49 23.54320 -74.95732 35008 ft 504 kts 123°
2026-05-04 17:50 23.51066 -74.88973 35006 ft 503 kts 123°
2026-05-04 17:50 23.47817 -74.82236 35010 ft 503 kts 123°
2026-05-04 17:51 23.44561 -74.75495 35004 ft 504 kts 123°
2026-05-04 17:51 23.41282 -74.68723 35006 ft 505 kts 123°
2026-05-04 17:52 23.38044 -74.62031 35008 ft 502 kts 123°
2026-05-04 17:52 23.34765 -74.55271 35009 ft 505 kts 123°
2026-05-04 17:53 23.31492 -74.48535 35007 ft 504 kts 123°
2026-05-04 17:53 23.28232 -74.41830 35009 ft 504 kts 123°
2026-05-04 17:54 23.24961 -74.35116 35008 ft 503 kts 123°
2026-05-04 17:54 23.21688 -74.28401 35009 ft 504 kts 123°
2026-05-04 17:55 23.18389 -74.21647 35009 ft 505 kts 123°
2026-05-04 17:55 23.15111 -74.14941 35008 ft 503 kts 123°
2026-05-04 17:56 23.11826 -74.08231 35007 ft 502 kts 123°
2026-05-04 17:56 23.08551 -74.01548 35009 ft 502 kts 123°
2026-05-04 17:57 23.05269 -73.94866 35008 ft 504 kts 123°
2026-05-04 17:57 23.01967 -73.88155 35008 ft 502 kts 123°
2026-05-04 17:58 22.98683 -73.81484 35003 ft 502 kts 123°
2026-05-04 17:58 22.95383 -73.74791 35003 ft 503 kts 123°
2026-05-04 17:59 22.92080 -73.68100 35001 ft 503 kts 123°
2026-05-04 18:00 22.87134 -73.58096 34998 ft 503 kts 123°
2026-05-04 18:00 22.83808 -73.51378 34994 ft 501 kts 123°
2026-05-04 18:01 22.80518 -73.44740 34998 ft 502 kts 123°
2026-05-04 18:01 22.77233 -73.38127 34994 ft 501 kts 122°
2026-05-04 18:02 22.72264 -73.28139 34995 ft 501 kts 123°
2026-05-04 18:02 22.68959 -73.21507 35005 ft 501 kts 123°
2026-05-04 18:03 22.65659 -73.14889 35009 ft 500 kts 123°
2026-05-04 18:03 22.62341 -73.08246 35009 ft 500 kts 123°
2026-05-04 18:04 22.59024 -73.01616 35009 ft 501 kts 123°
2026-05-04 18:05 22.54067 -72.91721 35009 ft 500 kts 123°
2026-05-04 18:05 22.50751 -72.85118 35008 ft 499 kts 123°
2026-05-04 18:06 22.45778 -72.75223 35010 ft 499 kts 122°
2026-05-04 18:06 22.42477 -72.68667 35010 ft 498 kts 122°
2026-05-04 18:07 22.39164 -72.62096 35005 ft 499 kts 122°
2026-05-04 18:07 22.35846 -72.55521 34996 ft 497 kts 122°
2026-05-04 18:08 22.32507 -72.48913 34991 ft 499 kts 122°
2026-05-04 18:08 22.29201 -72.42383 34991 ft 498 kts 122°
2026-05-04 18:09 22.22565 -72.29287 34990 ft 497 kts 122°
2026-05-04 18:10 22.19239 -72.22738 34990 ft 497 kts 122°
2026-05-04 18:10 22.15917 -72.16209 34991 ft 498 kts 122°
2026-05-04 18:11 22.12580 -72.09656 34990 ft 498 kts 122°
2026-05-04 18:11 22.09243 -72.03110 34991 ft 497 kts 122°
2026-05-04 18:12 22.05932 -71.96624 34990 ft 496 kts 122°
2026-05-04 18:12 22.02599 -71.90102 34987 ft 497 kts 122°
2026-05-04 18:13 21.99275 -71.83608 34987 ft 496 kts 122°
2026-05-04 18:14 21.94283 -71.73872 34986 ft 494 kts 122°
2026-05-04 18:14 21.90945 -71.67369 34987 ft 494 kts 122°
2026-05-04 18:15 21.84311 -71.54469 34993 ft 494 kts 122°
2026-05-04 18:16 21.80976 -71.47998 34993 ft 493 kts 122°
2026-05-04 18:16 21.77641 -71.41535 34995 ft 494 kts 122°
2026-05-04 18:17 21.72625 -71.31828 34993 ft 495 kts 122°
2026-05-04 18:18 21.67596 -71.22110 34991 ft 494 kts 122°
2026-05-04 18:18 21.64278 -71.15709 34990 ft 492 kts 122°
2026-05-04 18:19 21.59258 -71.06084 34988 ft 490 kts 123°
2026-05-04 18:19 21.55466 -71.00016 34987 ft 489 kts 131°
2026-05-04 18:20 21.51130 -70.94489 34988 ft 485 kts 135°
2026-05-04 18:20 21.46652 -70.89108 34986 ft 485 kts 135°
2026-05-04 18:21 21.42145 -70.83687 34988 ft 486 kts 135°
2026-05-04 18:21 21.37675 -70.78247 34995 ft 485 kts 135°
2026-05-04 18:22 21.33233 -70.72795 34994 ft 485 kts 135°
2026-05-04 18:22 21.28795 -70.67330 34989 ft 484 kts 134°
2026-05-04 18:23 21.24374 -70.61881 34995 ft 485 kts 134°
2026-05-04 18:23 21.19976 -70.56464 35000 ft 484 kts 134°
2026-05-04 18:24 21.15532 -70.50996 34996 ft 485 kts 134°
2026-05-04 18:24 21.11112 -70.45564 34996 ft 484 kts 134°
2026-05-04 18:25 21.06687 -70.40131 34997 ft 484 kts 134°
2026-05-04 18:25 21.02258 -70.34696 35001 ft 485 kts 134°
2026-05-04 18:26 20.97826 -70.29263 34998 ft 484 kts 134°
2026-05-04 18:26 20.93408 -70.23855 35000 ft 485 kts 134°
2026-05-04 18:27 20.88959 -70.18415 35000 ft 485 kts 134°
2026-05-04 18:27 20.84531 -70.13004 34999 ft 485 kts 134°
2026-05-04 18:28 20.80080 -70.07571 35000 ft 484 kts 134°
2026-05-04 18:28 20.75646 -70.02165 35002 ft 484 kts 134°
2026-05-04 18:29 20.71195 -69.96742 35001 ft 485 kts 134°
2026-05-04 18:29 20.66721 -69.91297 34994 ft 483 kts 134°
2026-05-04 18:30 20.60078 -69.83206 34989 ft 483 kts 134°
2026-05-04 18:31 20.55655 -69.77826 34984 ft 483 kts 134°
2026-05-04 18:31 20.51228 -69.72465 34986 ft 483 kts 134°
2026-05-04 18:32 20.46776 -69.67079 34987 ft 482 kts 134°
2026-05-04 18:32 20.42346 -69.61722 34989 ft 483 kts 134°
2026-05-04 18:33 20.37937 -69.56390 34985 ft 482 kts 134°
2026-05-04 18:33 20.33479 -69.51004 34984 ft 482 kts 134°
2026-05-04 18:34 20.29066 -69.45676 34984 ft 481 kts 134°
2026-05-04 18:34 20.24636 -69.40334 34981 ft 480 kts 134°
2026-05-04 18:35 20.20240 -69.35037 34986 ft 480 kts 134°
2026-05-04 18:35 20.15800 -69.29695 34983 ft 479 kts 134°
2026-05-04 18:36 20.11370 -69.24367 34984 ft 480 kts 134°
2026-05-04 18:36 20.06959 -69.19065 34997 ft 479 kts 134°
2026-05-04 18:37 20.02531 -69.13748 35004 ft 479 kts 134°
2026-05-04 18:37 19.98133 -69.08474 35006 ft 480 kts 134°
2026-05-04 18:38 19.93691 -69.03151 35006 ft 478 kts 134°
2026-05-04 18:38 19.89270 -68.97859 35006 ft 480 kts 134°
2026-05-04 18:39 19.84858 -68.92508 35006 ft 479 kts 131°
2026-05-04 18:39 19.80739 -68.86985 35005 ft 480 kts 129°
2026-05-04 18:40 19.76688 -68.81335 35005 ft 480 kts 129°
2026-05-04 18:40 19.72632 -68.75703 35005 ft 478 kts 129°
2026-05-04 18:41 19.68556 -68.70109 35005 ft 479 kts 129°
2026-05-04 18:41 19.64464 -68.64532 35006 ft 479 kts 129°
2026-05-04 18:42 19.60364 -68.58968 35004 ft 480 kts 129°
2026-05-04 18:42 19.56268 -68.53419 35004 ft 480 kts 129°
2026-05-04 18:43 19.52153 -68.47851 35003 ft 479 kts 129°
2026-05-04 18:43 19.48060 -68.42317 35004 ft 478 kts 129°
2026-05-04 18:44 19.43931 -68.36738 35004 ft 479 kts 129°
2026-05-04 18:44 19.39857 -68.31236 35004 ft 477 kts 130°
2026-05-04 18:45 19.35738 -68.25680 35005 ft 477 kts 130°
2026-05-04 18:45 19.31668 -68.20197 35005 ft 477 kts 130°
2026-05-04 18:46 19.27552 -68.14657 35006 ft 476 kts 130°
2026-05-04 18:46 19.23474 -68.09170 35007 ft 476 kts 130°
2026-05-04 18:47 19.19387 -68.03678 35007 ft 477 kts 130°
2026-05-04 18:47 19.15293 -67.98180 35007 ft 475 kts 129°
2026-05-04 18:48 19.11181 -67.92664 35007 ft 476 kts 130°
2026-05-04 18:48 19.07112 -67.87212 35007 ft 475 kts 130°
2026-05-04 18:49 19.03016 -67.81728 35003 ft 474 kts 129°
2026-05-04 18:49 18.98922 -67.76250 35005 ft 476 kts 129°
2026-05-04 18:50 18.94832 -67.70780 35002 ft 475 kts 129°
2026-05-04 18:50 18.90739 -67.65308 35001 ft 476 kts 129°
2026-05-04 18:51 18.86616 -67.59802 35002 ft 474 kts 129°
2026-05-04 18:51 18.82512 -67.54325 34999 ft 475 kts 129°
2026-05-04 18:52 18.78448 -67.48907 34999 ft 473 kts 129°
2026-05-04 18:52 18.74332 -67.43428 34999 ft 475 kts 129°
2026-05-04 18:53 18.70249 -67.37995 35000 ft 474 kts 129°
2026-05-04 18:53 18.66126 -67.32515 35004 ft 474 kts 129°
2026-05-04 18:54 18.62040 -67.27086 35007 ft 474 kts 129°
2026-05-04 18:54 18.57955 -67.21661 35009 ft 473 kts 129°
2026-05-04 18:55 18.53867 -67.16244 35012 ft 473 kts 129°
2026-05-04 18:55 18.47316 -67.08459 35014 ft 471 kts 139°
2026-05-04 18:56 18.42300 -67.03980 35020 ft 471 kts 142°
2026-05-04 18:56 18.37180 -66.99677 35026 ft 471 kts 142°
2026-05-04 18:57 18.32041 -66.95348 35036 ft 471 kts 142°
2026-05-04 18:57 18.26954 -66.91016 35047 ft 471 kts 141°
2026-05-04 18:58 18.21857 -66.86638 35053 ft 471 kts 141°
2026-05-04 18:58 18.16790 -66.82269 35046 ft 472 kts 141°
2026-05-04 18:59 18.11704 -66.77877 35038 ft 470 kts 141°
2026-05-04 18:59 18.06652 -66.73518 35030 ft 472 kts 141°
2026-05-04 19:00 18.01578 -66.69141 35016 ft 471 kts 141°
2026-05-04 19:00 17.96499 -66.64764 35014 ft 471 kts 141°
2026-05-04 19:01 17.91437 -66.60405 35017 ft 471 kts 141°
2026-05-04 19:01 17.86367 -66.56045 35016 ft 471 kts 141°
2026-05-04 19:02 17.81301 -66.51689 35013 ft 471 kts 141°
2026-05-04 19:02 17.76203 -66.47310 35009 ft 470 kts 141°
2026-05-04 19:03 17.71140 -66.42964 35008 ft 470 kts 141°
2026-05-04 19:03 17.66112 -66.38651 35007 ft 470 kts 141°
2026-05-04 19:04 17.61012 -66.34280 35005 ft 471 kts 141°
2026-05-04 19:04 17.55940 -66.29937 35006 ft 470 kts 141°
2026-05-04 19:05 17.50862 -66.25591 35003 ft 470 kts 141°
2026-05-04 19:05 17.45816 -66.21275 34998 ft 470 kts 141°
2026-05-04 19:06 17.40722 -66.16923 34996 ft 471 kts 141°
2026-05-04 19:06 17.35680 -66.12618 34996 ft 470 kts 141°
2026-05-04 19:07 17.30617 -66.08298 34995 ft 470 kts 141°
2026-05-04 19:07 17.25535 -66.03964 34991 ft 469 kts 141°
2026-05-04 19:08 17.20469 -65.99648 34992 ft 469 kts 141°
2026-05-04 19:08 17.15412 -65.95343 34992 ft 470 kts 141°
2026-05-04 19:09 17.10313 -65.91004 34989 ft 471 kts 141°
2026-05-04 19:09 17.05244 -65.86695 34990 ft 470 kts 141°
2026-05-04 19:10 17.00171 -65.82385 34989 ft 469 kts 141°
2026-05-04 19:10 16.95105 -65.78085 34988 ft 469 kts 141°
2026-05-04 19:11 16.90038 -65.73787 34988 ft 470 kts 140°
2026-05-04 19:11 16.84945 -65.69469 34989 ft 470 kts 140°
2026-05-04 19:12 16.77317 -65.63009 34987 ft 471 kts 140°
2026-05-04 19:13 16.72222 -65.58697 34988 ft 471 kts 140°
2026-05-04 19:13 16.67122 -65.54385 34988 ft 471 kts 140°
2026-05-04 19:14 16.62047 -65.50098 34986 ft 471 kts 140°
2026-05-04 19:14 16.56946 -65.45792 34988 ft 471 kts 140°
2026-05-04 19:15 16.51868 -65.41506 34989 ft 471 kts 140°
2026-05-04 19:15 16.46753 -65.37193 34988 ft 472 kts 140°
2026-05-04 19:16 16.41631 -65.32876 34985 ft 471 kts 141°
2026-05-04 19:16 16.36551 -65.28599 34986 ft 472 kts 140°
2026-05-04 19:17 16.31437 -65.24296 34987 ft 472 kts 140°
2026-05-04 19:17 16.26313 -65.19987 34987 ft 472 kts 140°
2026-05-04 19:18 16.21218 -65.15704 34987 ft 472 kts 140°
2026-05-04 19:18 16.16115 -65.11418 34986 ft 473 kts 140°
2026-05-04 19:19 16.10989 -65.07118 34987 ft 472 kts 140°
2026-05-04 19:19 16.05854 -65.02812 34988 ft 472 kts 140°
2026-05-04 19:20 16.00748 -64.98533 34986 ft 473 kts 140°
2026-05-04 19:20 15.95616 -64.94235 34989 ft 473 kts 140°
2026-05-04 19:21 15.90505 -64.89957 34991 ft 472 kts 140°
2026-05-04 19:21 15.85402 -64.85689 34985 ft 472 kts 140°
2026-05-04 19:22 15.80269 -64.81399 34990 ft 473 kts 140°
2026-05-04 19:22 15.75152 -64.77125 34984 ft 473 kts 140°
2026-05-04 19:23 15.70001 -64.72826 34985 ft 474 kts 140°
2026-05-04 19:23 15.64881 -64.68555 34982 ft 474 kts 140°
2026-05-04 19:24 15.59733 -64.64264 34984 ft 473 kts 140°
2026-05-04 19:24 15.54611 -64.59998 34985 ft 473 kts 140°
2026-05-04 19:25 15.49481 -64.55727 34983 ft 472 kts 140°
2026-05-04 19:25 15.44327 -64.51439 34981 ft 474 kts 140°
2026-05-04 19:26 15.39217 -64.47191 34983 ft 473 kts 140°
2026-05-04 19:26 15.34075 -64.42919 34983 ft 474 kts 140°
2026-05-04 19:27 15.28898 -64.38620 34980 ft 474 kts 140°
2026-05-04 19:27 15.23760 -64.34357 34980 ft 473 kts 140°
2026-05-04 19:28 15.18614 -64.30090 34982 ft 473 kts 140°
2026-05-04 19:28 15.13482 -64.25837 34976 ft 474 kts 140°
2026-05-04 19:29 15.08329 -64.21568 34966 ft 473 kts 140°
2026-05-04 19:29 15.03162 -64.17293 34967 ft 474 kts 141°
2026-05-04 19:30 14.97914 -64.13209 34968 ft 475 kts 146°
2026-05-04 19:30 14.92314 -64.09604 34967 ft 474 kts 149°
2026-05-04 19:31 14.86600 -64.06156 34968 ft 476 kts 149°
2026-05-04 19:31 14.80883 -64.02709 34966 ft 475 kts 149°
2026-05-04 19:32 14.75175 -63.99229 34966 ft 476 kts 148°
2026-05-04 19:32 14.69452 -63.95710 34967 ft 475 kts 148°
2026-05-04 19:33 14.63784 -63.92210 34968 ft 476 kts 148°
2026-05-04 19:33 14.58104 -63.88698 34968 ft 475 kts 148°
2026-05-04 19:34 14.52427 -63.85188 34967 ft 476 kts 148°
2026-05-04 19:34 14.46732 -63.81668 34969 ft 476 kts 148°
2026-05-04 19:35 14.41064 -63.78167 34967 ft 475 kts 148°
2026-05-04 19:35 14.35361 -63.74647 34968 ft 476 kts 148°
2026-05-04 19:36 14.29651 -63.71124 34970 ft 477 kts 148°
2026-05-04 19:36 14.23966 -63.67620 34968 ft 476 kts 148°
2026-05-04 19:37 14.18274 -63.64113 34969 ft 477 kts 148°
2026-05-04 19:37 14.12594 -63.60616 34967 ft 476 kts 148°
2026-05-04 19:38 14.06873 -63.57099 34968 ft 477 kts 148°
2026-05-04 19:38 14.01199 -63.53612 34969 ft 478 kts 148°
2026-05-04 19:39 13.95463 -63.50090 34965 ft 478 kts 148°
2026-05-04 19:39 13.89742 -63.46578 34968 ft 478 kts 148°
2026-05-04 19:40 13.84019 -63.43069 34966 ft 478 kts 148°
2026-05-04 19:40 13.78319 -63.39574 34964 ft 478 kts 148°
2026-05-04 19:41 13.72607 -63.36074 34964 ft 478 kts 148°
2026-05-04 19:41 13.66836 -63.32540 34963 ft 479 kts 148°
2026-05-04 19:42 13.61117 -63.29039 34959 ft 479 kts 148°
2026-05-04 19:42 13.55367 -63.25523 34958 ft 479 kts 149°
2026-05-04 19:43 13.49663 -63.22035 34957 ft 479 kts 148°
2026-05-04 19:43 13.43910 -63.18520 34960 ft 479 kts 148°
2026-05-04 19:44 13.38161 -63.15008 34966 ft 479 kts 149°
2026-05-04 19:44 13.32425 -63.11508 34958 ft 480 kts 149°
2026-05-04 19:45 13.26671 -63.07999 34956 ft 481 kts 148°
2026-05-04 19:45 13.20925 -63.04496 34957 ft 481 kts 149°
2026-05-04 19:46 13.15159 -63.00980 34950 ft 480 kts 149°
2026-05-04 19:46 13.09413 -62.97480 34953 ft 481 kts 149°
2026-05-04 19:47 13.03650 -62.93970 34951 ft 480 kts 149°
2026-05-04 19:47 12.97884 -62.90462 34951 ft 481 kts 149°
2026-05-04 19:48 12.92214 -62.87013 34951 ft 482 kts 149°
2026-05-04 19:48 12.86429 -62.83496 34953 ft 481 kts 149°
2026-05-04 19:49 12.80697 -62.80014 34954 ft 481 kts 149°
2026-05-04 19:49 12.74918 -62.76504 34961 ft 481 kts 149°
2026-05-04 19:50 12.69173 -62.73017 34959 ft 480 kts 149°
2026-05-04 19:50 12.63402 -62.69516 34966 ft 479 kts 149°
2026-05-04 19:51 12.57656 -62.66032 34960 ft 481 kts 149°
2026-05-04 19:51 12.51898 -62.62543 34958 ft 481 kts 149°
2026-05-04 19:52 12.46128 -62.59049 34958 ft 480 kts 149°
2026-05-04 19:52 12.40377 -62.55567 34958 ft 480 kts 149°
2026-05-04 19:53 12.34609 -62.52077 34960 ft 480 kts 149°
2026-05-04 19:53 12.28858 -62.48599 34959 ft 481 kts 149°
2026-05-04 19:54 12.23094 -62.45116 34958 ft 481 kts 149°
2026-05-04 19:54 12.17322 -62.41629 34957 ft 480 kts 149°
2026-05-04 19:54 12.14460 -62.39901 34710 ft 475 kts 149°
2026-05-04 19:55 12.11635 -62.38195 34257 ft 470 kts 149°
2026-05-04 19:55 12.08807 -62.36488 33714 ft 466 kts 149°
2026-05-04 19:55 12.06040 -62.34817 33056 ft 466 kts 150°
2026-05-04 19:55 12.03223 -62.33118 32426 ft 464 kts 150°
2026-05-04 19:56 12.00464 -62.31455 32045 ft 460 kts 150°
2026-05-04 19:56 11.97686 -62.29780 31567 ft 473 kts 150°
2026-05-04 19:56 11.94831 -62.28060 31028 ft 481 kts 150°
2026-05-04 19:56 11.91938 -62.26317 30476 ft 478 kts 150°
2026-05-04 19:57 11.89064 -62.24585 29929 ft 474 kts 150°
2026-05-04 19:57 11.86227 -62.22875 29389 ft 470 kts 150°
2026-05-04 19:57 11.83434 -62.21193 28854 ft 466 kts 150°
2026-05-04 19:57 11.80639 -62.19533 28329 ft 462 kts 152°
2026-05-04 19:58 11.77791 -62.18024 27802 ft 458 kts 155°
2026-05-04 19:58 11.74903 -62.16677 27270 ft 455 kts 157°
2026-05-04 19:58 11.72008 -62.15418 26737 ft 451 kts 158°
2026-05-04 19:58 11.69095 -62.14192 26202 ft 448 kts 159°
2026-05-04 19:59 11.66243 -62.13002 25677 ft 444 kts 159°
2026-05-04 19:59 11.63373 -62.11800 25139 ft 441 kts 158°
2026-05-04 19:59 11.60567 -62.10619 24615 ft 437 kts 158°
2026-05-04 19:59 11.57762 -62.09428 24084 ft 434 kts 158°
2026-05-04 20:00 11.54984 -62.08243 23558 ft 430 kts 158°
2026-05-04 20:00 11.52230 -62.07061 23034 ft 427 kts 158°
2026-05-04 20:00 11.49503 -62.05888 22504 ft 423 kts 158°
2026-05-04 20:00 11.46812 -62.04726 21976 ft 420 kts 157°
2026-05-04 20:01 11.44115 -62.03561 21447 ft 416 kts 157°
2026-05-04 20:01 11.41458 -62.02412 20922 ft 413 kts 156°
2026-05-04 20:01 11.38842 -62.01280 20396 ft 409 kts 156°
2026-05-04 20:01 11.36219 -62.00145 19867 ft 406 kts 155°
2026-05-04 20:02 11.33606 -61.99014 19334 ft 402 kts 155°
2026-05-04 20:02 11.31067 -61.97915 18816 ft 398 kts 155°
2026-05-04 20:02 11.28504 -61.96805 18287 ft 395 kts 154°
2026-05-04 20:02 11.26004 -61.95721 17768 ft 391 kts 154°
2026-05-04 20:03 11.23508 -61.94639 17245 ft 387 kts 153°
2026-05-04 20:03 11.21035 -61.93567 16726 ft 384 kts 154°
2026-05-04 20:03 11.18569 -61.92498 16203 ft 380 kts 154°
2026-05-04 20:03 11.16155 -61.91452 15685 ft 377 kts 154°
2026-05-04 20:04 11.13736 -61.90406 15162 ft 374 kts 154°
2026-05-04 20:04 11.11345 -61.89372 14641 ft 370 kts 153°
2026-05-04 20:04 11.08981 -61.88350 14127 ft 367 kts 154°
2026-05-04 20:04 11.06652 -61.87342 13620 ft 363 kts 154°
2026-05-04 20:05 11.04331 -61.86339 13116 ft 360 kts 154°
2026-05-04 20:05 11.02049 -61.85353 12620 ft 357 kts 154°
2026-05-04 20:05 10.99754 -61.84362 12115 ft 353 kts 154°
2026-05-04 20:05 10.97508 -61.83392 11726 ft 346 kts 154°
2026-05-04 20:06 10.95299 -61.82438 11377 ft 339 kts 153°
2026-05-04 20:06 10.93163 -61.81517 11094 ft 330 kts 154°
2026-05-04 20:06 10.91057 -61.80608 10807 ft 322 kts 153°
2026-05-04 20:06 10.89008 -61.79723 10542 ft 314 kts 153°
2026-05-04 20:07 10.87032 -61.78870 10374 ft 303 kts 153°
2026-05-04 20:07 10.85109 -61.78041 10205 ft 292 kts 153°
2026-05-04 20:07 10.83250 -61.77240 10006 ft 284 kts 154°
2026-05-04 20:07 10.81414 -61.76513 9723 ft 280 kts 156°
2026-05-04 20:08 10.79594 -61.75845 9441 ft 276 kts 156°
2026-05-04 20:08 10.77788 -61.75196 9156 ft 272 kts 156°
2026-05-04 20:08 10.76019 -61.74562 8873 ft 268 kts 156°
2026-05-04 20:08 10.74273 -61.73936 8591 ft 264 kts 156°
2026-05-04 20:09 10.72549 -61.73316 8307 ft 261 kts 156°
2026-05-04 20:09 10.70825 -61.72693 8019 ft 258 kts 156°
2026-05-04 20:09 10.69144 -61.72083 7702 ft 256 kts 156°
2026-05-04 20:09 10.67455 -61.71462 7345 ft 256 kts 155°
2026-05-04 20:10 10.65878 -61.70649 6984 ft 253 kts 142°
2026-05-04 20:10 10.64522 -61.69540 6635 ft 251 kts 136°
2026-05-04 20:10 10.63237 -61.68342 6276 ft 250 kts 132°
2026-05-04 20:10 10.62090 -61.67018 5918 ft 249 kts 126°
2026-05-04 20:11 10.61036 -61.65613 5555 ft 249 kts 124°
2026-05-04 20:11 10.60065 -61.64161 5177 ft 247 kts 116°
2026-05-04 20:11 10.59503 -61.62526 4823 ft 246 kts 98°
2026-05-04 20:11 10.59390 -61.60813 4483 ft 245 kts 90°
2026-05-04 20:12 10.59428 -61.59091 4232 ft 240 kts 89°
2026-05-04 20:12 10.59463 -61.57409 3974 ft 235 kts 90°
2026-05-04 20:12 10.59469 -61.55750 3748 ft 230 kts 91°
2026-05-04 20:12 10.59468 -61.54167 3609 ft 222 kts 91°
2026-05-04 20:13 10.59473 -61.52596 3320 ft 220 kts 90°
2026-05-04 20:13 10.59480 -61.51068 3029 ft 214 kts 90°
2026-05-04 20:13 10.59485 -61.49580 2732 ft 209 kts 90°
2026-05-04 20:13 10.59490 -61.48111 2443 ft 202 kts 90°
2026-05-04 20:14 10.59495 -61.46753 2189 ft 184 kts 90°
2026-05-04 20:14 10.59500 -61.45504 1957 ft 169 kts 90°
2026-05-04 20:14 10.59503 -61.44363 1749 ft 155 kts 89°
2026-05-04 20:14 10.59506 -61.43314 1572 ft 141 kts 89°
2026-05-04 20:15 10.59510 -61.42336 1405 ft 141 kts 90°
2026-05-04 20:15 10.59513 -61.41332 1201 ft 141 kts 90°
2026-05-04 20:15 10.59516 -61.40331 1021 ft 142 kts 90°
2026-05-04 20:15 10.59521 -61.39311 837 ft 143 kts 90°
2026-05-04 20:16 10.59523 -61.38307 663 ft 144 kts 90°
2026-05-04 20:16 10.59527 -61.37272 474 ft 145 kts 90°
2026-05-04 20:16 10.59528 -61.36246 286 ft 145 kts 91°
2026-05-04 20:16 10.59534 -61.35215 104 ft 147 kts 91°
2026-05-04 20:17 10.59530 -61.34286 69 ft 105 kts 90°
2026-05-04 20:17 10.59531 -61.33762 72 ft 52 kts 89°
2026-05-04 20:17 10.59580 -61.33514 74 ft 27 kts 56°
2026-05-04 20:17 10.59689 -61.33472 74 ft 16 kts 304°
2026-05-04 20:18 10.59698 -61.33597 73 ft 18 kts 268°
2026-05-04 20:18 10.59719 -61.33718 73 ft 17 kts 324°
2026-05-04 20:18 10.59820 -61.33765 73 ft 16 kts 284°
2026-05-04 20:18 10.59824 -61.33890 72 ft 17 kts 270°
2026-05-04 20:19 10.59854 -61.33973 72 ft 11 kts
2026-05-04 20:19 10.59914 -61.33957 72 ft 6 kts 18°
2026-05-04 20:19 10.59939 -61.33948 72 ft 2 kts 19°
2026-05-04 20:19 10.59948 -61.33944 72 ft 1 kts 19°
2026-05-04 20:20 10.59952 -61.33943 72 ft 1 kts 19°